Location: Camps Bay
(33.9517°S, 18.3844°E)
Time: 21:28:55
(UTC+00:00)

Meteor 1-4 Rocket - Pass Details

Date: 18 January 2020
Orbit: 449 x 503 km, 81.2° (Epoch: 18 February)

Event Time Altitude Azimuth Distance (km) Brightness Sun altitude
Exits shadow 02:58:28 16° 294° (WNW) 1,339 4.1 -10.7°
Maximum altitude 03:00:14 22° 256° (WSW) 1,110 4.0 -10.4°
Drops below altitude 10° 03:03:07 10° 204° (SSW) 1,680 5.4 -9.9°
Sets 03:05:38 0° 188° (S) 2,582 6.6 -9.5°
